User: anonymous   Login
Location: Beddau
(51.5575°N, 3.3561°W)
Time: 23:03:04
(UTC+00:00)
Language:

Terra - Orbit

View from above orbital plane
View from above orbital plane
View from above satellite
View from above satellite

Ground track
Ground track

The orbit data is extracted from the following two-line orbital elements,

1 25994U 99068A   21129.78232392  .00000051  00000-0  21276-4 0  9990
2 25994  98.1769 204.9110 0001429  99.0812  10.5632 14.57129285137836
Epoch (UTC): 09 May 2021 18:46:32
Eccentricity: 0.0001429
inclination: 98.1769°
perigee height: 701 km
apogee height: 703 km
right ascension of ascending node: 204.9110°
argument of perigee: 99.0812°
revolutions per day: 14.57129285
mean anomaly at epoch: 10.5632°
orbit number at epoch: 13783

The dashed part of the orbit path shows where the satellite is in the earth's shadow,  

DLR